User: anonymous   Login
Location: Fort Wayne
(41.1310°N, 85.1290°W)
Time: 08:14:59
(UTC-04:00)
Language:

Gbstr 26 Del rocket - Orbit

View from above orbital plane
View from above orbital plane
View from above satellite
View from above satellite

Ground track
Ground track

The orbit data is extracted from the following two-line orbital elements,

1 25876U 99041E   16268.17874765  .00000309  00000-0  93722-4 0  9998
2 25876  51.7655 286.2385 0532248 332.9148  24.4898 14.03878367877247
Epoch (UTC): 24 September 2016 04:17:23
Eccentricity: 0.0532248
inclination: 51.7655°
perigee height: 494 km
apogee height: 1267 km
right ascension of ascending node: 286.2385°
argument of perigee: 332.9148°
revolutions per day: 14.03878367
mean anomaly at epoch: 24.4898°
orbit number at epoch: 87724

The dashed part of the orbit path shows where the satellite is in the earth's shadow,  

DLR